Flag for U.S.A. Weather past 2 weeks in Wichita, Kansas, U.S.A.

Now
70 °F

Scattered clouds.


Feels Like: 77 °F
Forecast: 49 / 76 °F
Wind: 17 mph from South

Location: Wichita Mid-Continent Airport


UV Index: 5 (Moderate)

Visibility: 10 mi


Pressure: 30.09 "Hg

Humidity: 35%

Dew point: 41 °F

Location of WichitaLocation

Historic Weather in Wichita

°F

Wichita temperature yesterday

Maximum temperature yesterday: 51 °F (at 6:53 PM)
Minimum temperature yesterday: 38 °F (at 11:53 PM)
Average temperature yesterday: 43 °F

Past Weeks' High & Low Weather Summary

 TemperatureHumidityPressure
High87 °F (Apr 12, 3:53 PM)93% (Apr 12, 6:53 AM)30.33 "Hg (Apr 12, 6:53 AM)
Low28 °F (Apr 15, 1:53 AM)17% (Apr 15, 3:53 PM)29.38 "Hg (Apr 13, 12:53 PM)
Average54 °F53%29.96 "Hg
* Reported Apr 3 6:53 PM — Apr 18 6:53 PM, Wichita, Weather by CustomWeather, © 2014

Note: Actual official high and low records may vary slightly from our data, if they occured in-between our weather recording intervals... More about our weather records

Advertising

Historic Weather Conditions — Data for Previous 24 hours

 ConditionsComfort  
Time TempWeatherWind HumidityBarometerVisibility
6:53 PM
Apr 18
70 °FScattered clouds.17 mph35%30.09 "Hg10 mi
5:53 PM71 °FScattered clouds.16 mph34%30.10 "Hg10 mi
4:53 PM72 °FScattered clouds.16 mph35%30.12 "Hg10 mi
3:53 PM71 °FScattered clouds.17 mph36%30.14 "Hg10 mi
2:53 PM68 °FPassing clouds.13 mph40%30.18 "Hg10 mi
1:53 PM68 °FPassing clouds.17 mph42%30.21 "Hg10 mi
12:53 PM65 °FPassing clouds.13 mph47%30.23 "Hg9 mi
11:53 AM61 °FPassing clouds.10 mph50%30.25 "Hg7 mi
10:53 AM55 °FHaze.8 mph55%30.27 "Hg6 mi
9:53 AM50 °FHaze.8 mph66%30.28 "Hg4 mi
9:00 AM44 °FHaze.7 mph76%30.29 "Hg3 mi
7:53 AM37 °FFog.No wind89%30.30 "Hg1 mi
6:53 AM32 °FIce fog.No wind88%30.29 "Hg2 mi
5:53 AM33 °FFog.No wind92%30.26 "Hg2 mi
4:53 AM34 °FFog.No wind88%30.27 "Hg2 mi
3:53 AM35 °FFog.No wind88%30.27 "Hg2 mi
2:53 AM37 °FFog.3 mph86%30.28 "Hg2 mi
1:53 AM34 °FFog.3 mph88%30.29 "Hg3 mi
12:53 AM37 °FFog.No wind86%30.30 "Hg3 mi
11:53 PM
Apr 17
38 °FClear.No wind83%30.30 "Hg3 mi
10:53 PM40 °FHaze.No wind83%30.29 "Hg4 mi
9:53 PM43 °FHaze.No wind74%30.29 "Hg6 mi
8:53 PM44 °FHaze.7 mph73%30.27 "Hg6 mi
7:53 PM48 °FPassing clouds.6 mph63%30.25 "Hg8 mi
Weather by CustomWeather, © 2014

See weather overview